Tracking 29969 objects as of 6-Dec-2024
HD Live streaming from Space Station
objects crossing your sky now

IRIDIUM 33 DEB

Track IRIDIUM 33 DEB now!
10-day predictions


NORAD ID: 35632
Int'l Code: 1997-051RE
Perigee: 583.8 km
Apogee: 651.3 km
Inclination: 86.4 °
Period: 96.9 minutes
Semi major axis: 6988 km
RCS: 0.0098 m2 (small)
Launch date: September 14, 1997
Source: United States (US)
Launch site: TYURATAM MISSILE AND SPACE COMPLEX (TTMTR)

Note: This is SATELLITE DEBRIS
Your satellite tracking list
Your tracking list is empty




NASA's NSSDC Master Catalog

Two Line Element Set (TLE):
1 35632U 97051RE  24341.62224542  .00165714  00000-0  18170-1 0  9994
2 35632  86.4033 294.6056 0048277 337.4812  22.4293 14.86008167804222
Source of the keplerian elements: AFSPC